Location: Invercargill
(46.4000°S, 168.3500°E)
Time: 18:00:56
(UTC+12:00)

Cosmos 1943 Rocket - Pass Details

Date: 14 May 2021
Orbit: 813 x 842 km, 71.0° (Epoch: 14 June)

Event Time Altitude Azimuth Distance (km) Brightness Sun altitude
Rises 20:51:50 0° 210° (SSW) 3,424 5.9 -35.5°
Reaches altitude 10° 20:54:20 10° 214° (SW) 2,486 5.1 -35.9°
Enters shadow 20:57:28 32° 229° (SW) 1,422 3.7 -36.4°
